Location: Campestrin
(46.4667°N, 11.7167°E)
Time: 04:41:01
(UTC+00:00)

Cosmos 2221 - Pass Details

Date: 18 April 2021
Orbit: 593 x 614 km, 82.5° (Epoch: 16 May)

Event Time Altitude Azimuth Distance (km) Brightness Sun altitude
Exits shadow 20:53:18 22° 49° (NE) 1,328 4.2 -24.5°
Drops below altitude 10° 20:55:15 10° 29° (NNE) 1,940 5.4 -24.7°
Sets 20:57:39 0° 19° (NNE) 2,850 6.4 -25.0°
